Location: Hasbrouck
(41.7912°N, 74.6146°W)
Time: 15:46:45
(UTC+00:00)

Daily predictions for brighter satellites

Satellite Brightness Start Highest point End
(mag) Time Altitude Azimuth Time Altitude Azimuth Time Altitude Azimuth
Cosmos 1939 Rocket 3.4 22:25:53 10° SE 22:29:41 37° ENE 22:33:27 10° N
Cosmos 1943 3.5 22:28:50 10° NNW 22:34:31 74° WSW 22:40:07 10° SSE
Landsat 5 4.2 22:30:49 10° N 22:34:38 52° WNW 22:38:22 10° SSW
Cosmos 1626 3.8 22:33:29 10° SW 22:36:55 36° WNW 22:40:22 10° N
Cosmos 1315 Rocket 3.0 22:35:37 10° NNW 22:39:37 76° W 22:43:37 10° S
Hubble Space Telescope 3.4 22:38:33 10° S 22:39:43 11° S 22:40:53 10° SSE
Cosmos 2058 Rocket 3.6 22:36:01 10° N 22:40:14 38° ENE 22:44:26 10° SE
Meteor 1-24 Rocket 3.8 22:37:42 10° SSW 22:43:04 80° W 22:48:23 10° N
X-37B 0.9 22:40:41 10° SW 22:43:48 57° SSE 22:46:37 12° ENE
Cosmos 1844 4.4 22:38:51 10° SSE 22:43:53 35° ESE 22:49:01 10° NE
CZ-4 R/B 2.6 22:41:29 10° ESE 22:44:37 22° ENE 22:47:44 10° NNE
Cosmos 773 Rocket 4.0 22:40:20 10° NNW 22:45:31 89° WSW 22:50:39 10° SSE
H-2A R/B 3.0 22:43:16 10° ESE 22:47:10 23° ENE 22:51:09 10° NNE
CZ-2C R/B 3.4 22:46:53 10° SE 22:51:54 45° ENE 22:57:11 10° N
Cosmos 1726 Rocket 3.5 22:48:08 10° N 22:52:32 85° E 22:56:56 10° S
Okean 1-7 Rocket 3.8 22:48:43 10° SSE 22:53:06 51° E 22:57:32 10° NNE
Nadezhda 4 Rocket 4.2 22:48:03 10° SSE 22:54:01 49° E 22:59:58 10° NNE
MOS 1 Rocket 3.4 22:52:20 10° NNE 22:56:27 43° E 23:00:32 10° S
Cosmos 1626 Rocket 4.4 22:54:42 10° SSE 22:58:28 29° E 23:02:18 10° NNE
COSMOS 2455 3.0 22:54:33 10° SSW 23:00:35 80° WNW 23:06:39 10° NNE
Cosmos 1818 3.6 22:55:30 10° SSW 23:00:52 69° ESE 23:06:18 10° NE
Cosmos 1844 Rocket 2.7 22:56:17 10° S 23:01:52 62° ESE 23:07:27 10° NNE
Feng Yun 1-1 Rocket 4.1 22:56:49 10° SSE 23:02:12 71° ENE 23:07:43 10° N
CZ-4C R/B 4.4 22:59:39 10° WNW 23:03:03 16° NNW 23:06:51 10° NNE
CZ-2D R/B 3.2 23:01:14 10° SSE 23:05:02 61° ENE 23:08:50 10° N
ISS -3.6 23:05:54 10° WSW 23:09:15 68° NNW 23:11:21 21° NE
Cosmos 44 4.0 23:06:01 10° S 23:10:11 33° ESE 23:12:52 19° ENE
COSMO-SKYMED 1 2.6 23:09:04 10° NNE 23:13:26 88° WNW 23:17:47 10° SSW
Aureole 2 Rocket 2.4 23:10:42 10° SSW 23:13:39 64° WNW 23:16:39 10° NNE
Meteor 2-10 Rocket 3.6 23:08:21 10° N 23:13:52 89° E 23:19:06 10° S
Cosmos 2278 Rocket 4.0 23:11:57 10° SE 23:13:16 12° ESE 23:13:16 12° ESE
Meteor 1-21 Rocket 4.2 23:12:42 10° S 23:18:05 58° E 23:23:32 10° NNE
Cosmos 1538 Rocket 4.2 23:18:13 10° NNW 23:23:23 73° WSW 23:28:31 10° S
Cosmos 1689 Rocket 2.0 23:25:19 44° NE 23:25:52 53° E 23:28:40 10° S
CSL-04 Rocket 4.2 23:21:00 10° SE 23:25:54 36° ENE 23:30:51 10° N
Okean-O 2.6 23:23:51 10° SSE 23:28:12 59° ENE 23:32:34 10° N
Lacrosse 5 1.8 23:23:37 10° NW 23:28:38 62° NE 23:31:50 22° ESE
Okean O Rocket 3.9 23:25:15 10° SSW 23:29:01 27° W 23:32:50 10° NW
ATLAS 5 CENTAUR R/B 4.0 23:27:33 10° WNW 23:29:50 14° NNW 23:32:16 10° N
Cosmos 1455 2.0 23:26:56 10° N 23:30:45 80° E 23:34:35 10° S
Cosmos 2026 Rocket 4.2 23:25:08 10° SSE 23:30:50 44° E 23:36:38 10° NNE
Helios 1A Rocket 3.1 23:27:01 10° SE 23:31:00 46° ENE 23:34:59 10° N
Cosmos 1340 3.1 23:29:15 10° SSE 23:32:34 37° E 23:32:34 37° E
Aureole 3 2.6 23:33:14 10° N 23:36:36 90° NE 23:39:35 10° S
NOSS 2-1 (E) 3.4 23:34:23 10° SSW 23:37:25 40° SE 23:37:25 40° SE
Cosmos 1602 Rocket 3.5 23:34:43 10° S 23:38:58 59° E 23:41:52 20° NNE
ERS-2 2.6 23:38:46 10° N 23:42:22 61° WNW 23:45:56 10° SSW
CZ-4B R/B 3.6 23:39:32 10° NNW 23:42:23 25° WNW 23:45:09 10° SW
Cosmos 1703 3.0 23:38:41 10° S 23:42:33 75° E 23:44:38 26° NNE
YAOGAN 1 2.4 23:38:20 10° SSE 23:42:39 82° ENE 23:47:00 10° N
Meteor 2-1 Rocket 4.4 23:44:06 10° NNW 23:49:39 72° W 23:55:06 10° S
Meteor 2-8 Rocket 4.3 23:47:11 10° N 23:53:15 65° E 23:59:18 10° SSE
